Date,TemperatureHighF,TemperatureAvgF,TemperatureLowF,DewpointHighF,DewpointAvgF,DewpointLowF,HumidityHigh,HumidityAvg,HumidityLow,PressureMaxIn,PressureMinIn,WindSpeedMaxMPH,WindSpeedAvgMPH,GustSpeedMaxMPH,PrecipitationSumIn
2013-5-1,84,72,61,58,47,-100,80,50,28,30.05,29.88,18,-21,18,0.00
2013-5-2,69,59,44,56,50,41,95,73,53,30.14,30.03,21,3,21,0.11
2013-5-3,59,49,43,59,48,42,100,98,92,30.09,29.80,18,3,18,1.18
2013-5-4,64,58,54,58,56,52,99,90,72,30.01,29.82,14,2,14,0.09
2013-5-5,74,61,52,57,52,42,100,75,34,30.00,29.88,21,2,21,0.00
2013-5-6,77,65,54,52,46,36,89,55,26,30.00,29.91,18,2,18,0.00
2013-5-7,81,66,48,47,39,29,82,42,18,30.01,29.92,10,1,10,0.00
2013-5-8,82,67,50,56,48,40,93,54,24,30.00,29.91,14,1,14,0.00
2013-5-9,71,62,60,63,60,56,100,91,64,29.94,29.77,18,2,18,0.52
2013-5-10,62,53,49,62,51,46,100,92,84,29.98,29.77,17,2,17,0.00
2013-5-11,60,51,41,51,38,25,100,65,30,30.10,29.91,33,5,33,0.01
2013-5-12,57,46,33,34,28,-100,91,54,28,30.18,30.09,25,3,25,0.00
2013-5-13,70,54,33,42,34,27,96,52,25,30.19,29.97,16,2,16,0.00
2013-5-14,90,72,55,63,52,-100,73,52,35,29.96,29.63,21,5,21,0.00
2013-5-15,83,75,63,65,54,-100,80,52,28,29.80,29.67,22,4,22,0.00
2013-5-16,84,71,58,62,55,-100,98,63,32,29.90,29.79,19,1,19,0.07
2013-5-17,80,70,57,67,50,-100,98,69,14,29.95,29.86,17,1,17,0.10
2013-5-18,82,71,63,66,61,-100,100,78,51,29.98,29.84,12,1,12,0.00
2013-5-19,88,75,63,71,62,-100,96,72,53,29.87,29.64,17,3,25,0.00
2013-5-20,81,73,62,67,55,-100,98,68,48,29.78,29.63,27,5,27,0.60
2013-5-21,81,74,64,65,61,58,89,65,50,29.66,29.60,10,4,19,0.01
2013-5-22,70,64,59,62,57,54,100,80,60,29.76,29.59,8,2,16,0.12
2013-5-23,63,55,48,57,47,-100,100,83,65,30.24,29.76,7,-32,16,0.05
2013-5-24,67,53,38,47,39,-100,99,67,35,30.43,30.25,13,1,13,0.00
2013-5-25,53,50,46,51,40,-100,98,81,63,30.40,30.23,16,1,16,0.43
2013-5-26,64,56,50,59,51,-100,100,91,81,30.25,30.02,20,2,20,1.28
2013-5-27,69,62,58,66,58,-100,100,92,84,30.02,29.75,18,-9,18,0.22
2013-5-28,77,69,64,70,65,-100,99,89,75,29.84,29.67,28,4,28,0.30
2013-5-29,84,74,61,70,62,-100,100,76,55,29.92,29.76,22,4,22,0.62
2013-5-30,82,75,62,70,66,-100,98,76,62,29.83,29.69,32,6,32,0.33